When you browse on this site, cookies collect data to enhance your experience and personalize the content and advertising you see.
Visit our Privacy Policy to learn more. By continuing to use the site, you agree to this use of cookies and data.
  • En Estados Unidos
  • Lista de países
  • Para 7 días
  • Temperatura del agua
  • Mapa Satelital
  • El tiempo en el mapa
  • Informadores
  • user-avatar
    Iniciar sesión

    Tiempo cada hora Canillo

    Hoy, 11 Diciembre, Martes

    Tiempo Temperatura Precipitaciones Viento Presión Humedad
    00:00 -1°C° 0 mm 1 mps 622 mmHg 72%
    01:00 -1°C° 0 mm 1 mps 621 mmHg 72%
    02:00 -1°C° 0 mm 1 mps 621 mmHg 72%
    03:00 -1°C° 0 mm 1 mps 621 mmHg 72%
    04:00 -1°C° 0 mm 1 mps 620 mmHg 71%
    05:00 -1°C° 0 mm 1 mps 620 mmHg 70%
    06:00 -1°C° 0 mm 1 mps 620 mmHg 69%
    07:00 0°C° 0 mm 1 mps 620 mmHg 64%
    08:00 +2°C° 0 mm 1 mps 621 mmHg 59%
    09:00 +3°C° 0 mm 1 mps 621 mmHg 54%
    10:00 +5°C° 0 mm 1 mps 621 mmHg 51%
    11:00 +6°C° 0 mm 1 mps 622 mmHg 48%
    12:00 +7°C° 0 mm 1 mps 622 mmHg 44%
    13:00 +7°C° 0 mm 1 mps 621 mmHg 49%
    14:00 +6°C° 0 mm 1 mps 621 mmHg 53%
    15:00 +6°C° 0 mm 1 mps 620 mmHg 58%
    16:00 +4°C° 0 mm 1 mps 619 mmHg 62%
    17:00 +3°C° 0 mm 1 mps 619 mmHg 66%
    18:00 +1°C° 0 mm 1 mps 618 mmHg 71%
    19:00 +1°C° 0 mm 1 mps 618 mmHg 68%
    20:00 +1°C° 0 mm 1 mps 618 mmHg 65%
    21:00 +1°C° 0 mm 1 mps 618 mmHg 62%
    22:00 +1°C° 0 mm 1 mps 618 mmHg 61%
    23:00 +1°C° 0 mm 1 mps 618 mmHg 60%

    Mañana, 12 Diciembre, Miércoles

    Tiempo Temperatura Precipitaciones Viento Presión Humedad
    00:00 +1°C° 0 mm 1 mps 618 mmHg 58%
    01:00 -1°C° 0 mm 2 mps 618 mmHg 59%
    02:00 -1°C° 0 mm 2 mps 618 mmHg 60%
    03:00 -1°C° 0 mm 2 mps 618 mmHg 61%
    04:00 -1°C° 0 mm 2 mps 618 mmHg 63%
    05:00 -2°C° 0 mm 2 mps 618 mmHg 64%
    06:00 -2°C° 0 mm 2 mps 618 mmHg 66%
    07:00 -1°C° 0 mm 2 mps 618 mmHg 68%
    08:00 +1°C° 0 mm 2 mps 619 mmHg 71%
    09:00 +2°C° 0 mm 2 mps 619 mmHg 73%
    10:00 +2°C° 0.1 mm 2 mps 619 mmHg 72%
    11:00 +3°C° 0.1 mm 2 mps 619 mmHg 71%
    12:00 +4°C° 0.1 mm 1 mps 619 mmHg 71%
    13:00 +3°C° 0.1 mm 2 mps 618 mmHg 72%
    14:00 +2°C° 0.1 mm 2 mps 618 mmHg 74%
    15:00 +2°C° 0.1 mm 2 mps 617 mmHg 76%
    16:00 +2°C° 0 mm 1 mps 617 mmHg 80%
    17:00 +1°C° 0 mm 1 mps 616 mmHg 85%
    18:00 0°C° 0 mm 1 mps 616 mmHg 89%
    19:00 -1°C° 0 mm 1 mps 616 mmHg 88%
    20:00 -1°C° 0 mm 1 mps 615 mmHg 87%
    21:00 -1°C° 0 mm 1 mps 615 mmHg 86%
    22:00 -1°C° 0 mm 1 mps 615 mmHg 86%
    23:00 -1°C° 0 mm 1 mps 615 mmHg 85%

    Pasado mañana, 13 Diciembre, Jueves

    Tiempo Temperatura Precipitaciones Viento Presión Humedad
    00:00 -1°C° 0 mm 1 mps 614 mmHg 85%
    01:00 0°C° 0.1 mm 1 mps 614 mmHg 86%
    02:00 0°C° 0.1 mm 1 mps 613 mmHg 88%
    03:00 0°C° 0.1 mm 1 mps 613 mmHg 89%
    04:00 0°C° 0 mm 1 mps 612 mmHg 89%
    05:00 -1°C° 0 mm 1 mps 612 mmHg 90%
    06:00 -1°C° 0 mm 1 mps 611 mmHg 90%
    07:00 0°C° 0.1 mm 1 mps 611 mmHg 86%
    08:00 0°C° 0.1 mm 1 mps 611 mmHg 83%
    09:00 +1°C° 0.1 mm 1 mps 611 mmHg 79%
    10:00 +1°C° 0.4 mm 1 mps 611 mmHg 80%
    11:00 +1°C° 0.4 mm 1 mps 611 mmHg 81%
    12:00 +2°C° 0.4 mm 1 mps 611 mmHg 82%
    13:00 +1°C° 0.9 mm 1 mps 610 mmHg 85%
    14:00 +1°C° 0.9 mm 1 mps 610 mmHg 89%
    15:00 +1°C° 0.9 mm 1 mps 610 mmHg 92%
    16:00 -2°C° 0.8 mm 2 mps 610 mmHg 92%
    17:00 -2°C° 0.8 mm 2 mps 610 mmHg 92%
    18:00 -2°C° 0.8 mm 2 mps 610 mmHg 92%
    19:00 -2°C° 0.4 mm 2 mps 611 mmHg 91%
    20:00 -3°C° 0.4 mm 2 mps 611 mmHg 90%
    21:00 -4°C° 0.4 mm 3 mps 611 mmHg 89%
    22:00 -4°C° 0.3 mm 3 mps 612 mmHg 88%
    23:00 -4°C° 0.3 mm 3 mps 612 mmHg 87%

    14 Diciembre, Viernes

    Tiempo Temperatura Precipitaciones Viento Presión Humedad
    00:00 -4°C° 0.3 mm 3 mps 612 mmHg 87%
    01:00 -4°C° 0.2 mm 3 mps 612 mmHg 87%
    02:00 -4°C° 0.2 mm 3 mps 612 mmHg 86%
    03:00 -4°C° 0.2 mm 3 mps 613 mmHg 86%
    04:00 -4°C° 0.1 mm 3 mps 613 mmHg 86%
    05:00 -4°C° 0.1 mm 3 mps 614 mmHg 86%
    06:00 -4°C° 0.1 mm 3 mps 614 mmHg 85%
    07:00 -4°C° 0 mm 3 mps 615 mmHg 84%
    08:00 -2°C° 0 mm 3 mps 616 mmHg 83%
    09:00 -2°C° 0 mm 3 mps 617 mmHg 81%
    10:00 -1°C° 0 mm 3 mps 617 mmHg 78%
    11:00 0°C° 0 mm 3 mps 618 mmHg 75%
    12:00 +1°C° 0 mm 3 mps 619 mmHg 72%
    13:00 +1°C° 0 mm 3 mps 619 mmHg 72%
    14:00 +1°C° 0 mm 3 mps 619 mmHg 73%
    15:00 +1°C° 0 mm 3 mps 619 mmHg 73%
    16:00 0°C° 0 mm 3 mps 619 mmHg 75%
    17:00 -2°C° 0 mm 3 mps 619 mmHg 78%
    18:00 -4°C° 0 mm 3 mps 619 mmHg 80%
    19:00 -4°C° 0 mm 3 mps 619 mmHg 81%
    20:00 -4°C° 0 mm 3 mps 620 mmHg 82%
    21:00 -4°C° 0 mm 3 mps 620 mmHg 83%
    22:00 -3°C° 0 mm 2 mps 620 mmHg 83%
    23:00 -3°C° 0 mm 2 mps 620 mmHg 84%

    15 Diciembre, Sábado

    Tiempo Temperatura Precipitaciones Viento Presión Humedad
    00:00 -3°C° 0 mm 2 mps 620 mmHg 85%
    01:00 -4°C° 0 mm 2 mps 620 mmHg 84%
    02:00 -4°C° 0 mm 2 mps 620 mmHg 84%
    03:00 -4°C° 0 mm 2 mps 619 mmHg 84%
    04:00 -4°C° 0 mm 2 mps 619 mmHg 82%
    05:00 -5°C° 0 mm 2 mps 619 mmHg 81%
    06:00 -5°C° 0 mm 2 mps 619 mmHg 80%
    07:00 -4°C° 0 mm 2 mps 620 mmHg 76%
    08:00 -2°C° 0 mm 2 mps 621 mmHg 72%
    09:00 +1°C° 0 mm 1 mps 622 mmHg 68%
    10:00 +2°C° 0 mm 1 mps 622 mmHg 65%
    11:00 +4°C° 0 mm 1 mps 623 mmHg 62%
    12:00 +6°C° 0 mm 1 mps 623 mmHg 59%
    13:00 +5°C° 0 mm 1 mps 623 mmHg 62%
    14:00 +5°C° 0 mm 1 mps 622 mmHg 66%
    15:00 +4°C° 0 mm 1 mps 622 mmHg 69%
    16:00 +3°C° 0 mm 1 mps 622 mmHg 70%
    17:00 +2°C° 0 mm 1 mps 622 mmHg 70%
    18:00 +1°C° 0 mm 1 mps 621 mmHg 71%
    19:00 +1°C° 0.1 mm 1 mps 621 mmHg 69%
    20:00 +2°C° 0.1 mm 1 mps 622 mmHg 67%
    21:00 +2°C° 0.1 mm 1 mps 622 mmHg 66%
    22:00 +2°C° 0.1 mm 1 mps 622 mmHg 69%
    23:00 +2°C° 0.1 mm 1 mps 622 mmHg 72%

    16 Diciembre, Domingo

    Tiempo Temperatura Precipitaciones Viento Presión Humedad
    00:00 +2°C° 0.1 mm 1 mps 622 mmHg 75%
    01:00 +2°C° 0 mm 1 mps 621 mmHg 77%
    02:00 +2°C° 0 mm 1 mps 621 mmHg 78%
    03:00 +2°C° 0 mm 1 mps 621 mmHg 80%
    04:00 +2°C° 0 mm 1 mps 621 mmHg 82%
    05:00 +2°C° 0 mm 1 mps 621 mmHg 83%
    06:00 +2°C° 0 mm 1 mps 622 mmHg 85%
    07:00 +3°C° 0 mm 1 mps 622 mmHg 85%
    08:00 +4°C° 0 mm 1 mps 623 mmHg 85%
    09:00 +5°C° 0 mm 1 mps 623 mmHg 85%
    10:00 +6°C° 0 mm 1 mps 623 mmHg 82%
    11:00 +6°C° 0 mm 1 mps 624 mmHg 79%
    12:00 +7°C° 0 mm 1 mps 624 mmHg 76%
    13:00 +7°C° 0 mm 1 mps 624 mmHg 79%
    14:00 +7°C° 0 mm 1 mps 624 mmHg 81%
    15:00 +6°C° 0 mm 1 mps 623 mmHg 84%
    16:00 +5°C° 0.1 mm 1 mps 623 mmHg 87%
    17:00 +4°C° 0.1 mm 1 mps 623 mmHg 90%
    18:00 +3°C° 0.1 mm 1 mps 623 mmHg 92%
    19:00 +3°C° 0.1 mm 1 mps 623 mmHg 93%
    20:00 +3°C° 0.1 mm 1 mps 623 mmHg 93%
    21:00 +3°C° 0.1 mm 1 mps 624 mmHg 93%
    22:00 +2°C° 0.1 mm 1 mps 624 mmHg 94%
    23:00 +2°C° 0.1 mm 1 mps 624 mmHg 94%
    Mostrar más